Location: Unspecified
(51.5147°N, 7.4673°E)
Time: 05:40:18
(UTC+01:00)

Transit 4A - Pass Details

Date: 17 February 2026
Orbit: 863 x 978 km, 66.8° (Epoch: 14 March)

Event Time Altitude Azimuth Distance (km) Brightness Sun altitude
Exits shadow 06:37:47 13° 267° (W) 2,373 9.4 -10.3°
Maximum altitude 06:42:33 34° 328° (NNW) 1,470 8.7 -9.6°
Drops below altitude 10° 06:48:03 10° 32° (NNE) 2,638 10.6 -8.7°
Sets 06:50:54 0° 42° (NE) 3,603 11.5 -8.3°
